Time,TemperatureF,DewpointF,PressureIn,WindDirection,WindDirectionDegrees,WindSpeedMPH,WindSpeedGustMPH,Humidity,HourlyPrecipIn,Conditions,Clouds,dailyrainin,SoftwareType,DateUTC
2013-01-07 00:02:00,14.0,14.0,-100.00,ESE,120,2.0,4.0,99,0.00,,,-99.99,,2013-01-07 06:02:00,
2013-01-07 00:12:00,14.0,14.0,-100.00,SE,135,2.0,3.0,99,0.00,,,-99.99,,2013-01-07 06:12:00,
2013-01-07 00:22:00,14.0,14.0,-100.00,SE,130,2.0,4.0,99,0.00,,,-99.99,,2013-01-07 06:22:00,
2013-01-07 00:32:00,15.0,15.0,-100.00,SE,130,3.0,4.0,99,0.00,,,-99.99,,2013-01-07 06:32:00,
2013-01-07 00:42:00,14.0,14.0,-100.00,SE,140,3.0,4.0,99,0.00,,,-99.99,,2013-01-07 06:42:00,
2013-01-07 00:52:00,14.0,14.0,-100.00,SE,130,2.0,4.0,99,0.00,,,-99.99,,2013-01-07 06:52:00,
2013-01-07 01:02:00,14.0,14.0,-100.00,SE,135,2.0,4.0,99,0.00,,,-99.99,,2013-01-07 07:02:00,
2013-01-07 01:12:00,14.0,14.0,-100.00,ESE,120,4.0,4.0,99,0.00,,,-99.99,,2013-01-07 07:12:00,
2013-01-07 01:22:00,14.0,14.0,-100.00,ESE,115,4.0,5.0,99,0.00,,,-99.99,,2013-01-07 07:22:00,
2013-01-07 01:33:00,14.0,14.0,-100.00,ESE,115,4.0,5.0,99,0.00,,,-99.99,,2013-01-07 07:33:00,
2013-01-07 01:42:00,15.0,15.0,-100.00,ESE,120,5.0,6.0,99,0.00,,,-99.99,,2013-01-07 07:42:00,
2013-01-07 01:52:00,15.0,15.0,-100.00,SE,130,5.0,6.0,99,0.00,,,-99.99,,2013-01-07 07:52:00,
2013-01-07 02:03:00,16.0,15.0,-100.00,SE,130,4.0,5.0,99,0.00,,,-99.99,,2013-01-07 08:03:00,
2013-01-07 02:12:00,16.0,15.0,-100.00,SE,130,4.0,5.0,99,0.00,,,-99.99,,2013-01-07 08:12:00,
2013-01-07 02:22:00,16.0,16.0,-100.00,SE,135,5.0,6.0,99,0.00,,,-99.99,,2013-01-07 08:22:00,
2013-01-07 02:32:00,16.0,16.0,-100.00,SE,145,4.0,7.0,98,0.00,,,-99.99,,2013-01-07 08:32:00,
2013-01-07 02:42:00,16.0,16.0,-100.00,SE,145,4.0,5.0,98,0.00,,,-99.99,,2013-01-07 08:42:00,
2013-01-07 02:52:00,16.0,16.0,-100.00,SE,145,3.0,4.0,98,0.00,,,-99.99,,2013-01-07 08:52:00,
2013-01-07 03:02:00,16.0,15.0,-100.00,SE,145,4.0,4.0,98,0.00,,,-99.99,,2013-01-07 09:02:00,
2013-01-07 03:12:00,15.0,15.0,-100.00,SE,145,4.0,5.0,98,0.00,,,-99.99,,2013-01-07 09:12:00,
2013-01-07 03:22:00,15.0,14.0,-100.00,SSE,165,3.0,4.0,98,0.00,,,-99.99,,2013-01-07 09:22:00,
2013-01-07 03:32:00,15.0,14.0,-100.00,SSE,160,4.0,5.0,98,0.00,,,-99.99,,2013-01-07 09:32:00,
2013-01-07 03:42:00,17.0,17.0,-100.00,SSE,160,4.0,6.0,98,0.00,,,-99.99,,2013-01-07 09:42:00,
2013-01-07 03:52:00,17.0,16.0,-100.00,SSE,165,2.0,5.0,98,0.00,,,-99.99,,2013-01-07 09:52:00,
2013-01-07 04:02:00,17.0,17.0,-100.00,SSE,155,2.0,5.0,98,0.00,,,-99.99,,2013-01-07 10:02:00,
2013-01-07 04:12:00,17.0,17.0,-100.00,SSE,160,2.0,4.0,98,0.00,,,-99.99,,2013-01-07 10:12:00,
2013-01-07 04:22:00,17.0,17.0,-100.00,SSE,165,4.0,6.0,98,0.00,,,-99.99,,2013-01-07 10:22:00,
2013-01-07 04:32:00,17.0,17.0,-100.00,South,180,4.0,6.0,98,0.00,,,-99.99,,2013-01-07 10:32:00,
2013-01-07 04:42:00,17.0,17.0,-100.00,South,175,4.0,6.0,98,0.00,,,-99.99,,2013-01-07 10:42:00,
2013-01-07 04:52:00,18.0,17.0,-100.00,South,180,6.0,7.0,98,0.00,,,-99.99,,2013-01-07 10:52:00,
2013-01-07 05:02:00,18.0,18.0,-100.00,South,175,6.0,8.0,98,0.00,,,-99.99,,2013-01-07 11:02:00,
2013-01-07 05:12:00,18.0,18.0,-100.00,South,175,5.0,9.0,98,0.00,,,-99.99,,2013-01-07 11:12:00,
2013-01-07 05:22:00,18.0,18.0,-100.00,South,175,4.0,7.0,98,0.00,,,-99.99,,2013-01-07 11:22:00,
2013-01-07 05:32:00,19.0,19.0,-100.00,South,175,4.0,6.0,98,0.00,,,-99.99,,2013-01-07 11:32:00,
2013-01-07 05:43:00,19.0,19.0,-100.00,SSE,165,4.0,7.0,98,0.00,,,-99.99,,2013-01-07 11:43:00,
2013-01-07 05:52:00,19.0,19.0,-100.00,South,175,5.0,7.0,97,0.00,,,-99.99,,2013-01-07 11:52:00,
2013-01-07 06:03:00,19.0,19.0,-100.00,South,185,6.0,8.0,97,0.00,,,-99.99,,2013-01-07 12:03:00,
2013-01-07 06:12:00,19.0,19.0,-100.00,South,190,4.0,7.0,97,0.00,,,-99.99,,2013-01-07 12:12:00,
2013-01-07 06:22:00,20.0,19.0,-100.00,South,180,7.0,10.0,97,0.00,,,-99.99,,2013-01-07 12:22:00,
2013-01-07 06:33:00,20.0,20.0,-100.00,South,180,10.0,15.0,97,0.00,,,-99.99,,2013-01-07 12:33:00,
2013-01-07 06:43:00,21.0,20.0,-100.00,South,180,9.0,14.0,97,0.00,,,-99.99,,2013-01-07 12:43:00,
2013-01-07 06:52:00,20.0,20.0,-100.00,South,180,9.0,12.0,97,0.00,,,-99.99,,2013-01-07 12:52:00,
2013-01-07 07:02:00,21.0,20.0,-100.00,South,185,10.0,14.0,97,0.00,,,-99.99,,2013-01-07 13:02:00,
2013-01-07 07:12:00,22.0,21.0,-100.00,South,180,10.0,14.0,97,0.00,,,-99.99,,2013-01-07 13:12:00,
2013-01-07 07:23:00,22.0,21.0,-100.00,South,185,11.0,16.0,96,0.00,,,-99.99,,2013-01-07 13:23:00,
2013-01-07 07:33:00,22.0,22.0,-100.00,South,180,10.0,15.0,95,0.00,,,-99.99,,2013-01-07 13:33:00,
2013-01-07 07:42:00,22.0,21.0,-100.00,South,180,9.0,14.0,95,0.00,,,-99.99,,2013-01-07 13:42:00,
2013-01-07 07:52:00,22.0,21.0,-100.00,South,180,9.0,12.0,94,0.00,,,-99.99,,2013-01-07 13:52:00,
2013-01-07 08:03:00,22.0,21.0,-100.00,South,180,9.0,12.0,94,0.00,,,-99.99,,2013-01-07 14:03:00,
2013-01-07 08:12:00,22.0,21.0,-100.00,South,175,9.0,14.0,94,0.00,,,-99.99,,2013-01-07 14:12:00,
2013-01-07 08:22:00,23.0,21.0,-100.00,South,185,9.0,13.0,93,0.00,,,-99.99,,2013-01-07 14:22:00,
2013-01-07 08:33:00,24.0,22.0,-100.00,South,185,12.0,17.0,90,0.00,,,-99.99,,2013-01-07 14:33:00,
2013-01-07 08:42:00,25.0,22.0,-100.00,South,180,12.0,18.0,88,0.00,,,-99.99,,2013-01-07 14:42:00,
2013-01-07 08:53:00,27.0,23.0,-100.00,South,190,12.0,16.0,84,0.00,,,-99.99,,2013-01-07 14:53:00,
2013-01-07 09:03:00,27.0,23.0,-100.00,South,190,12.0,16.0,84,0.00,,,-99.99,,2013-01-07 15:03:00,
2013-01-07 09:12:00,28.0,23.0,-100.00,South,180,9.0,16.0,81,0.00,,,-99.99,,2013-01-07 15:12:00,
2013-01-07 09:22:00,28.0,23.0,-100.00,South,180,9.0,16.0,81,0.00,,,-99.99,,2013-01-07 15:22:00,
2013-01-07 09:33:00,29.0,23.0,-100.00,South,185,9.0,12.0,77,0.00,,,-99.99,,2013-01-07 15:33:00,
2013-01-07 09:42:00,29.0,23.0,-100.00,South,185,11.0,19.0,76,0.00,,,-99.99,,2013-01-07 15:42:00,
2013-01-07 09:53:00,30.0,24.0,-100.00,South,185,12.0,15.0,75,0.00,,,-99.99,,2013-01-07 15:53:00,
2013-01-07 10:02:00,31.0,23.0,-100.00,South,180,10.0,15.0,74,0.00,,,-99.99,,2013-01-07 16:02:00,
2013-01-07 10:12:00,31.0,24.0,-100.00,SSW,195,9.0,14.0,72,0.00,,,-99.99,,2013-01-07 16:12:00,
2013-01-07 10:22:00,31.0,23.0,-100.00,South,190,15.0,21.0,71,0.00,,,-99.99,,2013-01-07 16:22:00,
2013-01-07 10:33:00,31.0,23.0,-100.00,South,190,15.0,21.0,71,0.00,,,-99.99,,2013-01-07 16:33:00,
2013-01-07 10:43:00,32.0,24.0,-100.00,South,185,17.0,22.0,70,0.00,,,-99.99,,2013-01-07 16:43:00,
2013-01-07 10:53:00,33.0,24.0,-100.00,South,180,14.0,21.0,69,0.00,,,-99.99,,2013-01-07 16:53:00,
2013-01-07 11:02:00,33.0,24.0,-100.00,South,180,14.0,21.0,69,0.00,,,-99.99,,2013-01-07 17:02:00,
2013-01-07 11:12:00,34.0,24.0,-100.00,SSW,200,16.0,26.0,68,0.00,,,-99.99,,2013-01-07 17:12:00,
2013-01-07 11:22:00,34.0,25.0,-100.00,South,185,16.0,24.0,67,0.00,,,-99.99,,2013-01-07 17:22:00,
2013-01-07 11:33:00,35.0,25.0,-100.00,South,190,18.0,26.0,66,0.00,,,-99.99,,2013-01-07 17:33:00,
2013-01-07 11:42:00,35.0,25.0,-100.00,South,185,17.0,22.0,65,0.00,,,-99.99,,2013-01-07 17:42:00,
2013-01-07 11:53:00,35.0,25.0,-100.00,SSW,195,17.0,23.0,65,0.00,,,-99.99,,2013-01-07 17:53:00,
2013-01-07 12:03:00,36.0,26.0,-100.00,SSW,195,15.0,21.0,65,0.00,,,-99.99,,2013-01-07 18:03:00,
2013-01-07 12:12:00,36.0,26.0,-100.00,South,185,16.0,22.0,65,0.00,,,-99.99,,2013-01-07 18:12:00,
2013-01-07 12:23:00,37.0,26.0,-100.00,SSW,195,18.0,22.0,64,0.00,,,-99.99,,2013-01-07 18:23:00,
2013-01-07 12:32:00,37.0,26.0,-100.00,South,190,16.0,22.0,64,0.00,,,-99.99,,2013-01-07 18:32:00,
2013-01-07 12:42:00,37.0,26.0,-100.00,SSW,200,18.0,24.0,64,0.00,,,-99.99,,2013-01-07 18:42:00,
2013-01-07 12:53:00,38.0,26.0,-100.00,SSW,200,16.0,22.0,63,0.00,,,-99.99,,2013-01-07 18:53:00,
2013-01-07 13:03:00,38.0,26.0,-100.00,SSW,200,16.0,22.0,63,0.00,,,-99.99,,2013-01-07 19:03:00,
2013-01-07 13:12:00,38.0,26.0,-100.00,SSW,195,21.0,28.0,60,0.00,,,-99.99,,2013-01-07 19:12:00,
2013-01-07 13:22:00,38.0,26.0,-100.00,SSW,195,15.0,22.0,60,0.00,,,-99.99,,2013-01-07 19:22:00,
2013-01-07 13:33:00,38.0,26.0,-100.00,SSW,195,18.0,24.0,60,0.00,,,-99.99,,2013-01-07 19:33:00,
2013-01-07 13:42:00,38.0,26.0,-100.00,SSW,205,16.0,24.0,60,0.00,,,-99.99,,2013-01-07 19:42:00,
2013-01-07 13:52:00,38.0,26.0,-100.00,SSW,200,14.0,23.0,60,0.00,,,-99.99,,2013-01-07 19:52:00,
2013-01-07 14:03:00,38.0,26.0,-100.00,SSW,200,14.0,23.0,60,0.00,,,-99.99,,2013-01-07 20:03:00,
2013-01-07 14:12:00,39.0,26.0,-100.00,South,190,16.0,22.0,60,0.00,,,-99.99,,2013-01-07 20:12:00,
2013-01-07 14:23:00,39.0,26.0,-100.00,SSW,195,16.0,21.0,60,0.00,,,-99.99,,2013-01-07 20:23:00,
2013-01-07 14:33:00,39.0,26.0,-100.00,SSW,195,14.0,21.0,60,0.00,,,-99.99,,2013-01-07 20:33:00,
2013-01-07 14:42:00,39.0,26.0,-100.00,South,190,14.0,20.0,60,0.00,,,-99.99,,2013-01-07 20:42:00,
2013-01-07 14:52:00,39.0,26.0,-100.00,South,185,17.0,21.0,60,0.00,,,-99.99,,2013-01-07 20:52:00,
2013-01-07 15:03:00,38.0,26.0,-100.00,SSW,195,12.0,21.0,61,0.00,,,-99.99,,2013-01-07 21:03:00,
2013-01-07 15:12:00,39.0,27.0,-100.00,SSW,200,13.0,17.0,62,0.00,,,-99.99,,2013-01-07 21:12:00,
2013-01-07 15:22:00,39.0,27.0,-100.00,South,185,16.0,20.0,62,0.00,,,-99.99,,2013-01-07 21:22:00,
2013-01-07 15:33:00,38.0,27.0,-100.00,South,185,17.0,24.0,62,0.00,,,-99.99,,2013-01-07 21:33:00,
2013-01-07 15:43:00,38.0,27.0,-100.00,SSW,200,14.0,19.0,63,0.00,,,-99.99,,2013-01-07 21:43:00,
2013-01-07 15:52:00,38.0,27.0,-100.00,SSW,200,13.0,18.0,63,0.00,,,-99.99,,2013-01-07 21:52:00,
2013-01-07 16:02:00,38.0,27.0,-100.00,SSW,205,10.0,19.0,64,0.00,,,-99.99,,2013-01-07 22:02:00,
2013-01-07 16:12:00,37.0,27.0,-100.00,SSW,205,11.0,18.0,65,0.00,,,-99.99,,2013-01-07 22:12:00,
2013-01-07 16:22:00,37.0,27.0,-100.00,SSW,200,8.0,17.0,66,0.00,,,-99.99,,2013-01-07 22:22:00,
2013-01-07 16:33:00,37.0,27.0,-100.00,SSW,210,7.0,11.0,68,0.00,,,-99.99,,2013-01-07 22:33:00,
2013-01-07 16:42:00,37.0,27.0,-100.00,SSW,200,7.0,11.0,68,0.00,,,-99.99,,2013-01-07 22:42:00,
2013-01-07 16:52:00,36.0,27.0,-100.00,SSW,195,6.0,12.0,69,0.00,,,-99.99,,2013-01-07 22:52:00,
2013-01-07 17:02:00,36.0,27.0,-100.00,SSW,200,6.0,9.0,71,0.00,,,-99.99,,2013-01-07 23:02:00,
2013-01-07 17:12:00,35.0,27.0,-100.00,South,190,8.0,11.0,73,0.00,,,-99.99,,2013-01-07 23:12:00,
2013-01-07 17:22:00,35.0,28.0,-100.00,South,185,8.0,11.0,74,0.00,,,-99.99,,2013-01-07 23:22:00,
2013-01-07 17:33:00,35.0,28.0,-100.00,SSW,195,7.0,12.0,76,0.00,,,-99.99,,2013-01-07 23:33:00,
2013-01-07 17:42:00,35.0,28.0,-100.00,South,190,7.0,11.0,76,0.00,,,-99.99,,2013-01-07 23:42:00,
2013-01-07 17:52:00,35.0,28.0,-100.00,South,190,9.0,12.0,77,0.00,,,-99.99,,2013-01-07 23:52:00,
2013-01-07 18:02:00,35.0,28.0,-100.00,South,185,8.0,12.0,77,0.00,,,-99.99,,2013-01-08 00:02:00,
2013-01-07 18:12:00,34.0,28.0,-100.00,South,185,9.0,14.0,78,0.00,,,-99.99,,2013-01-08 00:12:00,
2013-01-07 18:22:00,35.0,28.0,-100.00,South,190,8.0,13.0,78,0.00,,,-99.99,,2013-01-08 00:22:00,
2013-01-07 18:33:00,34.0,28.0,-100.00,South,190,8.0,11.0,79,0.00,,,-99.99,,2013-01-08 00:33:00,
2013-01-07 18:42:00,34.0,28.0,-100.00,South,190,7.0,13.0,79,0.00,,,-99.99,,2013-01-08 00:42:00,
2013-01-07 18:52:00,34.0,29.0,-100.00,South,185,9.0,14.0,79,0.00,,,-99.99,,2013-01-08 00:52:00,
2013-01-07 19:02:00,34.0,29.0,-100.00,South,190,9.0,14.0,79,0.00,,,-99.99,,2013-01-08 01:02:00,
2013-01-07 19:12:00,34.0,29.0,-100.00,SSW,200,9.0,14.0,79,0.00,,,-99.99,,2013-01-08 01:12:00,
2013-01-07 19:22:00,34.0,29.0,-100.00,South,190,10.0,14.0,79,0.00,,,-99.99,,2013-01-08 01:22:00,
2013-01-07 19:33:00,34.0,29.0,-100.00,South,180,11.0,14.0,79,0.00,,,-99.99,,2013-01-08 01:33:00,
2013-01-07 19:42:00,34.0,29.0,-100.00,South,185,11.0,15.0,79,0.00,,,-99.99,,2013-01-08 01:42:00,
2013-01-07 19:52:00,34.0,29.0,-100.00,South,190,11.0,15.0,79,0.00,,,-99.99,,2013-01-08 01:52:00,
2013-01-07 20:02:00,34.0,29.0,-100.00,South,190,11.0,15.0,79,0.00,,,-99.99,,2013-01-08 02:02:00,
2013-01-07 20:12:00,34.0,28.0,-100.00,SSW,195,9.0,13.0,79,0.00,,,-99.99,,2013-01-08 02:12:00,
2013-01-07 20:22:00,34.0,29.0,-100.00,SSW,200,8.0,12.0,80,0.00,,,-99.99,,2013-01-08 02:22:00,
2013-01-07 20:32:00,34.0,28.0,-100.00,SW,215,7.0,10.0,80,0.00,,,-99.99,,2013-01-08 02:32:00,
2013-01-07 20:42:00,34.0,28.0,-100.00,SSW,200,9.0,12.0,80,0.00,,,-99.99,,2013-01-08 02:42:00,
2013-01-07 20:53:00,34.0,29.0,-100.00,SSW,200,9.0,14.0,80,0.00,,,-99.99,,2013-01-08 02:53:00,
2013-01-07 21:03:00,34.0,28.0,-100.00,South,190,9.0,12.0,80,0.00,,,-99.99,,2013-01-08 03:03:00,
2013-01-07 21:12:00,34.0,28.0,-100.00,SSW,205,8.0,12.0,80,0.00,,,-99.99,,2013-01-08 03:12:00,
2013-01-07 21:22:00,33.0,28.0,-100.00,SSW,195,6.0,10.0,81,0.00,,,-99.99,,2013-01-08 03:22:00,
2013-01-07 21:32:00,33.0,28.0,-100.00,SSW,210,6.0,10.0,82,0.00,,,-99.99,,2013-01-08 03:32:00,
2013-01-07 21:43:00,33.0,28.0,-100.00,SSW,200,4.0,8.0,82,0.00,,,-99.99,,2013-01-08 03:43:00,
2013-01-07 21:52:00,32.0,28.0,-100.00,South,180,4.0,6.0,83,0.00,,,-99.99,,2013-01-08 03:52:00,
2013-01-07 22:02:00,32.0,27.0,-100.00,SSW,195,4.0,7.0,83,0.00,,,-99.99,,2013-01-08 04:02:00,
2013-01-07 22:12:00,31.0,27.0,-100.00,South,180,4.0,6.0,84,0.00,,,-99.99,,2013-01-08 04:12:00,
2013-01-07 22:22:00,31.0,27.0,-100.00,South,185,3.0,5.0,85,0.00,,,-99.99,,2013-01-08 04:22:00,
2013-01-07 22:32:00,31.0,28.0,-100.00,South,180,3.0,6.0,86,0.00,,,-99.99,,2013-01-08 04:32:00,
2013-01-07 22:42:00,31.0,28.0,-100.00,South,180,3.0,4.0,86,0.00,,,-99.99,,2013-01-08 04:42:00,
2013-01-07 22:52:00,31.0,27.0,-100.00,South,180,2.0,4.0,87,0.00,,,-99.99,,2013-01-08 04:52:00,
2013-01-07 23:03:00,31.0,28.0,-100.00,South,180,4.0,5.0,88,0.00,,,-99.99,,2013-01-08 05:03:00,
2013-01-07 23:12:00,30.0,27.0,-100.00,South,185,4.0,6.0,89,0.00,,,-99.99,,2013-01-08 05:12:00,
2013-01-07 23:22:00,30.0,27.0,-100.00,South,185,4.0,6.0,89,0.00,,,-99.99,,2013-01-08 05:22:00,
2013-01-07 23:33:00,30.0,28.0,-100.00,South,185,4.0,6.0,90,0.00,,,-99.99,,2013-01-08 05:33:00,
2013-01-07 23:42:00,30.0,28.0,-100.00,South,185,4.0,6.0,90,0.00,,,-99.99,,2013-01-08 05:42:00,
2013-01-07 23:53:00,31.0,28.0,-100.00,South,190,5.0,7.0,90,0.00,,,-99.99,,2013-01-08 05:53:00,